Location: Big Meadows
(38.5260°N, 78.4400°W)
Time: 06:51:44
(UTC-04:00)

Daily predictions for brighter satellites

Satellite Brightness Start Highest point End
(mag) Time Altitude Azimuth Time Altitude Azimuth Time Altitude Azimuth
Meteor 2-10 Rocket 3.9 20:54:54 10° N 21:00:45 87° W 21:06:32 10° S
Cosmos 1937 Rocket 3.5 20:55:42 10° SSW 21:00:50 88° ESE 21:06:01 10° NNE
H-2A ROCKET BODY 2.8 20:59:23 10° SSW 21:01:13 17° SSE 21:04:27 10° ESE
OE (NEXTSAT) 4.4 20:57:40 10° WNW 21:01:14 87° SSW 21:04:45 10° ESE
GPS 2-04 Rocket1 2.7 20:59:53 10° WSW 21:03:35 54° S 21:07:08 10° E
H-2A R/B 4.2 21:03:52 10° ENE 21:05:30 11° ENE 21:07:08 10° NE
Resurs 1-3 4.3 21:06:44 10° S 21:11:02 57° W 21:15:22 10° NNW
Cosmos 2150 Rocket 4.3 21:08:02 10° SSW 21:13:24 75° WNW 21:18:44 10° NNE
Cosmos 1470 Rocket 4.5 21:09:13 10° SSW 21:13:36 54° W 21:18:01 10° N
Meteor 1-29 3.8 21:11:22 10° NNE 21:14:31 31° E 21:17:39 10° SSE
Cosmos 1703 Rocket 4.1 21:10:53 10° N 21:15:02 39° ENE 21:19:08 10° SSE
Meteor 2-3 Rocket 3.7 21:12:49 10° S 21:18:32 77° E 21:24:13 10° NNE
CZ-4B DEB 4.5 21:16:37 10° SSE 21:20:10 84° ENE 21:23:44 10° N
SJ-11-01 4.3 21:15:36 10° SSE 21:20:18 74° ENE 21:25:01 10° N
Cosmos 1408 4.0 21:18:03 11° SE 21:20:40 22° E 21:23:35 10° NE
Cosmos 2082 Rocket 4.0 21:16:33 10° NW 21:21:22 29° WSW 21:26:10 10° SSW
Meteor 1-26 Rocket 4.3 21:16:33 10° N 21:22:14 90° W 21:28:00 10° S
Milstar 3 4.3 21:10:54 10° SW 21:22:46 35° S 21:29:45 11° ESE
Cosmos 1782 3.9 21:23:18 10° NNE 21:26:45 27° ENE 21:29:11 15° SE
ERS-1 Rocket 3.7 21:23:31 12° SE 21:27:44 38° ENE 21:32:22 10° N
Cosmos 2344 4.1 21:23:39 10° S 21:30:28 36° ESE 21:37:36 10° NE
Cosmos 1825 3.2 21:28:21 14° SE 21:30:52 28° E 21:34:08 10° NNE
Cosmos 1869 Rocket 3.6 21:28:09 10° S 21:32:21 54° E 21:36:37 10° NNE
BREEZE-M DEB (TANK) 4.3 21:32:26 10° NNW 21:35:11 28° NNE 21:42:44 10° E
Helios 1B rocket 2.4 21:33:49 10° NNE 21:37:57 89° ESE 21:42:02 10° SSW
Cosmos 2084 3.4 21:34:55 10° NNW 21:38:42 59° NE 21:41:16 20° SE
USA 215 3.9 21:35:07 12° ESE 21:40:54 47° NE 21:47:08 10° NW
Lacrosse 4 Rocket 3.0 21:43:29 10° N 21:47:12 25° NE 21:49:28 17° E
Cosmos 1892 4.3 21:44:24 10° SSW 21:47:58 36° WNW 21:51:32 10° N
USA 186 4.5 21:48:14 10° WSW 21:49:22 12° W 21:50:32 10° WNW
Cosmos 2221 Rocket 3.6 21:45:14 10° N 21:49:40 68° E 21:52:53 18° SSE
ISS -2.1 21:48:45 10° WSW 21:51:47 36° NNW 21:54:50 10° NE
Cosmos 1943 Rocket 2.2 21:46:36 10° S 21:52:06 61° ESE 21:57:34 10° NNE
Terra 3.8 21:54:15 12° E 21:55:50 14° ENE 21:58:10 10° NNE
Cosmos 1634 Rocket 4.2 21:53:42 10° N 21:59:59 73° W 22:06:16 10° S
Cosmos 2263 4.2 21:55:46 10° SSW 22:01:33 88° WNW 22:07:19 10° NNE
Tiangong 2 1.8 21:59:37 10° W 22:02:40 42° SSW 22:03:23 35° S
Cosmos 468 4.4 21:57:42 10° NNW 22:02:59 83° ENE 22:06:14 24° SSE
NOAA 11 4.1 21:58:58 18° SSE 22:03:08 85° ENE 22:08:39 10° NNW
SPOT 1/Viking Rocket 4.4 22:00:52 23° ESE 22:03:15 35° ENE 22:07:57 10° N
CENTAUR R/B 2.4 21:58:34 10° SSW 22:04:30 88° ESE 22:11:16 10° NNE
Cosmos 372 Rocket 3.8 22:00:00 10° S 22:05:06 74° ESE 22:10:13 10° NNE
Cosmos 1340 2.9 22:03:59 10° N 22:07:41 50° ENE 22:08:45 37° SE
BREEZE M DEB (TANK) 4.4 21:53:22 10° SW 22:08:55 82° NW 22:13:05 10° NE
Helios 1A 4.4 22:05:57 10° SSW 22:09:47 35° W 22:13:39 10° NNW
Nadezhda 4 Rocket 4.4 22:06:49 24° SSE 22:10:07 43° E 22:15:54 10° NNE
COSMOS 2455 3.9 22:04:21 10° SW 22:10:08 48° WNW 22:15:58 10° NNE
SPOT 5 3.3 22:08:10 27° SE 22:10:57 57° ENE 22:16:10 10° N
CZ-4B DEB 4.2 22:09:44 17° SSW 22:11:27 31° W 22:14:07 10° NNW
Cosmos 1269 Rocket 4.1 22:07:10 10° NNW 22:12:27 64° ENE 22:14:56 31° SE
Cosmos 2369 Rocket 3.2 22:08:19 10° SW 22:13:46 49° WNW 22:19:18 10° NNE
Cosmos 1125 Rocket 3.7 22:10:25 10° SSW 22:15:39 73° WNW 22:20:54 10° NNE
H-2A R/B 4.2 22:16:52 11° ENE 22:17:14 11° ENE 22:18:35 10° NE
YAOGAN 11 4.3 22:16:37 35° SE 22:18:20 60° ENE 22:22:47 10° N
Cosmos 1833 4.4 22:15:54 10° NNW 22:21:37 57° ENE 22:24:00 33° SE
Cosmos 1606 3.0 22:18:27 10° NNW 22:22:12 63° W 22:23:47 32° SSW
Lacrosse 5 rocket 3.2 22:21:13 10° W 22:24:19 27° NW 22:27:30 10° NNE
USA 245 4.4 22:21:01 27° SSE 22:24:38 84° ENE 22:31:02 10° N
Shenzhou-11 Module 4.0 22:23:42 10° W 22:25:36 19° SW 22:25:36 19° SW
Cosmos 2279 Rocket 4.2 22:27:34 10° NNW 22:33:47 67° W 22:38:02 21° S
TRAILBLAZER 4.5 22:32:11 12° SSW 22:36:25 87° ESE 22:40:59 10° NNE
ATLAS 5 CENTAUR R/B 2.4 22:32:24 10° NNW 22:38:30 86° ENE 22:41:08 39° SE
Cosmos 1867 4.5 22:35:22 10° NNW 22:40:24 37° NE 22:42:05 30° E
Meteor 1-27 Rocket 3.7 22:35:10 10° N 22:40:56 87° W 22:43:17 37° S
GPS 2-04 Rocket1 3.6 22:39:37 10° W 22:42:02 31° SW 22:42:02 31° SW
H-2A R/B 2.1 22:42:10 42° SSE 22:44:07 88° ENE 22:49:30 10° NNW
Cosmos 494 Rocket 4.4 22:43:29 10° N 22:48:32 47° ENE 22:49:23 43° E
Intercosmos 25 Rocket 4.0 22:42:34 10° N 22:49:38 79° E 22:50:46 54° SSE
ARGOS 3.7 22:47:36 29° SSW 22:50:11 53° W 22:55:27 10° NNW
Cosmos 1656 Rocket 3.5 22:48:00 31° SSW 22:50:44 83° ESE 22:56:16 10° NNE
Cosmos 1733 Rocket 3.8 23:01:46 36° SW 23:03:06 49° W 23:07:18 10° N
Sich 1 Rocket 3.7 23:12:21 67° NE 23:12:21 67° NE 23:16:19 10° N
Cosmos 1655 Rocket 4.4 23:13:16 44° E 23:13:35 44° E 23:19:25 10° NNE
Landsat 7 4.0 23:17:28 59° SW 23:17:52 62° W 23:22:36 10° NNW
Meteor 1-14 Rocket 4.2 23:22:20 68° SSE 23:23:06 80° E 23:28:56 10° NNE
Meteor 2-20 Rocket 4.4 23:22:12 52° SSW 23:23:49 81° W 23:29:59 10° N
Cosmos 2227 Rocket 3.7 23:19:18 10° N 23:23:49 24° NE 23:24:44 23° ENE
USA 215 3.6 23:22:28 44° SSW 23:23:50 51° SW 23:30:12 10° NW
CZ-2C R/B 4.5 23:21:07 10° NE 23:22:58 16° ENE 23:22:58 16° ENE
Lacrosse 4 Rocket 2.8 23:21:58 10° NW 23:25:48 31° WSW 23:25:48 31° WSW
Cosmos 2026 Rocket 3.8 23:28:05 67° SSE 23:28:52 78° E 23:35:08 10° N
ISS -0.3 23:28:10 10° NNW 23:29:01 11° NNW 23:29:51 10° N
Cosmos 1975 Rocket 3.9 23:24:37 10° N 23:28:04 44° NE 23:28:04 44° NE
Cosmos 2219 3.1 23:24:15 10° NNW 23:30:01 76° ENE 23:30:23 72° ESE
Terra 2.0 23:33:08 62° W 23:33:08 62° W 23:37:45 10° NNW
SL-19 R/B 4.4 23:26:59 10° NNE 23:33:05 89° WNW 23:34:17 61° SSW
ATLAS CENTAUR R/B 2.8 23:36:09 30° NNE 23:36:09 30° NNE 23:38:14 10° NNE
Cosmos 1812 4.0 23:30:52 10° N 23:33:20 37° N 23:33:20 37° N
CARTOSAT-1 4.3 23:36:19 49° WNW 23:36:19 49° WNW 23:40:03 10° NNW
BREEZE-M DEB (TANK) 3.1 23:36:03 78° SE 23:36:03 78° SE 23:47:44 10° NE
Cosmos 2251 Rocket 3.6 23:35:52 10° NNW 23:40:56 68° W 23:40:56 68° W
Cosmos 1378 Rocket 4.3 23:38:18 10° NNW 23:42:02 50° WNW 23:42:02 50° WNW
SME Rocket 4.2 23:43:23 63° S 23:44:38 85° WSW 23:53:48 10° NNW
Cosmos 1417 Rocket 4.4 23:39:33 10° N 23:45:51 73° E 23:46:11 71° ESE
Cosmos 1428 Rocket 4.3 23:46:28 75° ESE 23:46:46 76° E 23:53:05 10° N
ARGOS Delta rocket 4.4 23:42:59 10° NNE 23:46:12 47° NNE 23:46:12 47° NNE
Meteor 2-11 Rocket 4.4 23:42:14 10° N 23:48:22 71° E 23:48:29 70° E
H-2A R/B 3.2 23:53:59 38° NW 23:53:59 38° NW 23:56:47 10° NNW
S3M 4.0 23:46:52 10° N 23:52:56 63° E 23:52:56 63° E
GEOS 3 Rocket 4.0 23:54:47 55° W 23:54:47 55° W 23:59:22 10° NW
